Dauntless Aviation
Greetings, Guest! To participate, [sign up for a free account] or [log in]
Airports Europe Germany
EDSW

Altdorf-Wallburg

Altdorf-Wallburg, GERMANY

Airport Info
Edit

Location

Latitude / Longitude: 48°16'11"N / 7°50'31"E
  48°16.188'N / 7°50.532'E
  48.2698 / 7.8422
Satellite photo at:
Airport distance calculator
From:
Weather Reports

METAR

LFST
18.2nm NW
LFST 202000Z AUTO 03003KT 9999 NSC 15/10 Q1017
EDSB
32.3nm N
EDSB 202020Z 22004KT CAVOK 14/10 Q1017

TAF

EDTL
5.8nm NW
TAF EDTL 201700Z 2018/2024 VRB03KT 9999 FEW040 TEMPO 2018/2024 SHRA SCT030TCU
LFST
18.2nm NW
TAF LFST 201700Z 2018/2118 23004KT 9999 FEW040 BKN080 PROB40 TEMPO 2018/2022 33010KT SHRA SCT045TCU PROB30 TEMPO 2018/2020 FEW045CB PROB30 TEMPO 2104/2106 5000 MIFG TEMPO 2110/2114 FEW035TCU
EDSB
32.3nm N
TAF EDSB 201700Z 2018/2118 VRB03KT 9999 FEW040 TEMPO 2018/2101 SHRA SCT030TCU BECMG 2105/2107 24005KT
Safelog

 

Dauntless Aviation

© 2007-2014 Dauntless Aviation, all rights reserved
Information provided via PilotNav comes from a variety of official and unofficial data sources. As errors are possible, do not use PilotNav for primary flight planning purposes. Verify any information that you receive via PilotNav with current and canonical charts and other official documents. The material in this database is subject to database copyrights held by Dauntless Aviation and may not be copied without the express permission of Dauntless Aviation - licenses for use of part of all of this data are available for purchase; enquire via the Dauntless Aviation helpdesk. A number of mechanisms and markers exist in the database to protect against and identify infringement / copyright. Automated queries against this website are stictly prohibited, and all activity is logged and analyzed.